User: anonymous   Login
Location: Unspecified
(0.0000°N, 0.0000°E)
Time: 10:05:02
(UTC+00:00)
Language:

XW-2D - Orbit

View from above orbital plane
View from above orbital plane
View from above satellite
View from above satellite

Ground track
Ground track

The orbit data is extracted from the following two-line orbital elements,

1 40907U 15049J   21340.88055883  .00002393  00000-0  12200-3 0  9999
2 40907  97.4898 341.0438 0012342 310.2950 165.9588 15.17669377343747
Epoch (UTC): 06 December 2021 21:08:00
Eccentricity: 0.0012342
inclination: 97.4898°
perigee height: 504 km
apogee height: 521 km
right ascension of ascending node: 341.0438°
argument of perigee: 310.2950°
revolutions per day: 15.17669377
mean anomaly at epoch: 165.9588°
orbit number at epoch: 34374

The dashed part of the orbit path shows where the satellite is in the earth's shadow,  

DLR